AEROCUBE 7

Last updated on Wed Nov 20 2024 00:03:37 GMT+0000 (Coordinated Universal Time)

1 40966U 15058C 24324.32980143 .00007492 00000+0 61153-3 0 9999 2 40966 64.7662 236.6230 0182035 261.3255 96.7198 14.88018949280162
UTC large
Height (km)
Speed (km/s)
/
Latitude / Longitude
Inclination (degrees)
Orbital Period (minutes)
Azimuth
Elevation
Range (km)
Doppler Factor

Next 0 passes for location: London (51.5072 / 0.1276)

Sorry there are no passes over London.